When you browse on this site, cookies collect data to enhance your experience and personalize the content and advertising you see.
Visit our Privacy Policy to learn more. By continuing to use the site, you agree to this use of cookies and data.
  • In Sweden
  • List of Countries
  • For 7 days
  • Water Temperature
  • Weather Map
  • Weather Widgets
  • user-avatar
    Login

    Hourly Weather Cherteim

    Today, 20 September, Friday

    Time Temperature Precipitation Wind Pressure Humidity
    00:00 +5°C° 0 mm 2 mps 742 mmHg 92%
    01:00 +5°C° 0 mm 2 mps 742 mmHg 93%
    02:00 +5°C° 0 mm 2 mps 742 mmHg 93%
    03:00 +5°C° 0 mm 2 mps 742 mmHg 94%
    04:00 +5°C° 0 mm 2 mps 743 mmHg 94%
    05:00 +5°C° 0 mm 2 mps 743 mmHg 95%
    06:00 +5°C° 0 mm 2 mps 743 mmHg 96%
    07:00 +6°C° 0.1 mm 2 mps 743 mmHg 93%
    08:00 +7°C° 0.1 mm 2 mps 743 mmHg 89%
    09:00 +8°C° 0 mm 3 mps 743 mmHg 86%
    10:00 +9°C° 0.5 mm 3 mps 743 mmHg 83%
    11:00 +10°C° 0.5 mm 3 mps 742 mmHg 81%
    12:00 +10°C° 0.5 mm 4 mps 742 mmHg 78%
    13:00 +11°C° 0.6 mm 3 mps 742 mmHg 76%
    14:00 +11°C° 0.6 mm 3 mps 742 mmHg 74%
    15:00 +12°C° 0.6 mm 2 mps 742 mmHg 72%
    16:00 +10°C° 0.3 mm 2 mps 741 mmHg 76%
    17:00 +10°C° 0.3 mm 1 mps 741 mmHg 80%
    18:00 +9°C° 0.3 mm 1 mps 741 mmHg 84%
    19:00 +9°C° 0.2 mm 1 mps 741 mmHg 86%
    20:00 +8°C° 0.2 mm 1 mps 741 mmHg 88%
    21:00 +7°C° 0.2 mm 2 mps 741 mmHg 90%
    22:00 +7°C° 0 mm 1 mps 741 mmHg 91%
    23:00 +7°C° 0 mm 1 mps 741 mmHg 91%

    Tomorrow, 21 September, Saturday

    Time Temperature Precipitation Wind Pressure Humidity
    00:00 +6°C° 0 mm 1 mps 741 mmHg 92%
    01:00 +6°C° 0 mm 1 mps 741 mmHg 92%
    02:00 +6°C° 0 mm 1 mps 741 mmHg 92%
    03:00 +5°C° 0 mm 1 mps 741 mmHg 93%
    04:00 +5°C° 0 mm 1 mps 741 mmHg 93%
    05:00 +5°C° 0 mm 1 mps 741 mmHg 94%
    06:00 +5°C° 0 mm 1 mps 741 mmHg 95%
    07:00 +6°C° 0 mm 1 mps 741 mmHg 92%
    08:00 +6°C° 0 mm 2 mps 741 mmHg 89%
    09:00 +7°C° 0 mm 2 mps 742 mmHg 86%
    10:00 +8°C° 0.1 mm 2 mps 741 mmHg 80%
    11:00 +9°C° 0.1 mm 3 mps 741 mmHg 74%
    12:00 +10°C° 0.1 mm 3 mps 741 mmHg 68%
    13:00 +10°C° 0.1 mm 3 mps 741 mmHg 64%
    14:00 +10°C° 0.1 mm 3 mps 741 mmHg 59%
    15:00 +10°C° 0.1 mm 3 mps 740 mmHg 55%
    16:00 +9°C° 0 mm 3 mps 740 mmHg 60%
    17:00 +8°C° 0 mm 2 mps 740 mmHg 65%
    18:00 +7°C° 0 mm 1 mps 740 mmHg 70%
    19:00 +7°C° 0 mm 1 mps 740 mmHg 72%
    20:00 +6°C° 0 mm 1 mps 740 mmHg 75%
    21:00 +5°C° 0 mm 1 mps 740 mmHg 78%
    22:00 +5°C° 0 mm 1 mps 740 mmHg 80%
    23:00 +5°C° 0 mm 1 mps 740 mmHg 82%

    Day after tomorrow, 22 September, Sunday

    Time Temperature Precipitation Wind Pressure Humidity
    00:00 +5°C° 0 mm 1 mps 739 mmHg 85%
    01:00 +4°C° 0 mm 1 mps 739 mmHg 87%
    02:00 +3°C° 0 mm 2 mps 739 mmHg 90%
    03:00 +3°C° 0 mm 2 mps 739 mmHg 93%
    04:00 +2°C° 0 mm 2 mps 739 mmHg 94%
    05:00 +2°C° 0 mm 2 mps 738 mmHg 94%
    06:00 +2°C° 0 mm 2 mps 738 mmHg 95%
    07:00 +3°C° 0 mm 2 mps 738 mmHg 86%
    08:00 +4°C° 0 mm 3 mps 738 mmHg 77%
    09:00 +5°C° 0 mm 3 mps 737 mmHg 68%
    10:00 +6°C° 0 mm 4 mps 737 mmHg 63%
    11:00 +7°C° 0 mm 4 mps 736 mmHg 57%
    12:00 +8°C° 0 mm 5 mps 735 mmHg 52%
    13:00 +8°C° 0 mm 5 mps 735 mmHg 54%
    14:00 +8°C° 0 mm 6 mps 734 mmHg 57%
    15:00 +7°C° 0 mm 6 mps 733 mmHg 59%
    16:00 +5°C° 1.1 mm 6 mps 732 mmHg 71%
    17:00 +5°C° 1.1 mm 5 mps 731 mmHg 83%
    18:00 +2°C° 1.1 mm 5 mps 729 mmHg 95%
    19:00 +3°C° 0.7 mm 5 mps 729 mmHg 93%
    20:00 +3°C° 0.7 mm 6 mps 728 mmHg 92%
    21:00 +4°C° 0.7 mm 7 mps 727 mmHg 90%
    22:00 +3°C° 0.1 mm 7 mps 727 mmHg 91%
    23:00 +1°C° 0.1 mm 8 mps 726 mmHg 92%

    23 September, Monday

    Time Temperature Precipitation Wind Pressure Humidity
    00:00 -1°C° 0.1 mm 8 mps 726 mmHg 94%
    01:00 -1°C° 0.1 mm 8 mps 726 mmHg 94%
    02:00 -1°C° 0.1 mm 8 mps 727 mmHg 94%
    03:00 -1°C° 0.1 mm 8 mps 727 mmHg 94%
    04:00 0°C° 0.4 mm 8 mps 728 mmHg 94%
    05:00 0°C° 0.4 mm 8 mps 729 mmHg 94%
    06:00 0°C° 0.4 mm 9 mps 729 mmHg 94%
    07:00 0°C° 0.5 mm 9 mps 731 mmHg 94%
    08:00 0°C° 0.5 mm 9 mps 733 mmHg 94%
    09:00 0°C° 0.5 mm 9 mps 734 mmHg 94%
    10:00 0°C° 0.2 mm 8 mps 736 mmHg 91%
    11:00 0°C° 0.2 mm 8 mps 737 mmHg 88%
    12:00 0°C° 0.2 mm 7 mps 738 mmHg 85%
    13:00 0°C° 0.1 mm 7 mps 739 mmHg 81%
    14:00 0°C° 0.1 mm 7 mps 740 mmHg 78%
    15:00 0°C° 0.1 mm 7 mps 740 mmHg 75%
    16:00 +1°C° 0 mm 6 mps 741 mmHg 75%
    17:00 +1°C° 0 mm 5 mps 742 mmHg 76%
    18:00 +1°C° 0 mm 4 mps 742 mmHg 76%
    19:00 0°C° 0 mm 4 mps 743 mmHg 80%
    20:00 0°C° 0 mm 4 mps 743 mmHg 83%
    21:00 0°C° 0 mm 4 mps 744 mmHg 86%
    22:00 0°C° 0 mm 4 mps 744 mmHg 87%
    23:00 -1°C° 0 mm 4 mps 744 mmHg 88%

    24 September, Tuesday

    Time Temperature Precipitation Wind Pressure Humidity
    00:00 -1°C° 0 mm 4 mps 744 mmHg 89%
    01:00 -1°C° 0 mm 4 mps 744 mmHg 90%
    02:00 -1°C° 0 mm 3 mps 745 mmHg 91%
    03:00 -1°C° 0 mm 3 mps 745 mmHg 92%
    04:00 -1°C° 0 mm 3 mps 745 mmHg 92%
    05:00 -1°C° 0 mm 3 mps 745 mmHg 91%
    06:00 -2°C° 0 mm 3 mps 745 mmHg 91%
    07:00 -1°C° 0 mm 4 mps 745 mmHg 85%
    08:00 0°C° 0 mm 4 mps 745 mmHg 80%
    09:00 +2°C° 0 mm 5 mps 745 mmHg 74%
    10:00 +3°C° 0.1 mm 5 mps 745 mmHg 69%
    11:00 +5°C° 0.1 mm 5 mps 745 mmHg 65%
    12:00 +5°C° 0.1 mm 6 mps 745 mmHg 60%
    13:00 +6°C° 0.1 mm 5 mps 745 mmHg 59%
    14:00 +6°C° 0.1 mm 5 mps 745 mmHg 58%
    15:00 +6°C° 0.1 mm 5 mps 745 mmHg 57%
    16:00 +5°C° 0.1 mm 4 mps 745 mmHg 63%
    17:00 +4°C° 0.1 mm 3 mps 745 mmHg 69%
    18:00 +4°C° 0.1 mm 2 mps 745 mmHg 75%
    19:00 +3°C° 0 mm 2 mps 746 mmHg 78%
    20:00 +3°C° 0 mm 2 mps 746 mmHg 82%
    21:00 +2°C° 0 mm 2 mps 746 mmHg 86%
    22:00 +3°C° 0 mm 1 mps 746 mmHg 87%
    23:00 +2°C° 0 mm 1 mps 746 mmHg 88%

    25 September, Wednesday

    Time Temperature Precipitation Wind Pressure Humidity
    00:00 +2°C° 0 mm 1 mps 746 mmHg 89%
    01:00 +2°C° 0 mm 1 mps 746 mmHg 90%
    02:00 +1°C° 0 mm 1 mps 746 mmHg 91%
    03:00 +1°C° 0 mm 1 mps 746 mmHg 91%
    04:00 +1°C° 0 mm 1 mps 746 mmHg 91%
    05:00 +1°C° 0 mm 1 mps 746 mmHg 91%
    06:00 +1°C° 0 mm 1 mps 746 mmHg 92%
    07:00 +2°C° 0 mm 2 mps 746 mmHg 84%
    08:00 +3°C° 0 mm 2 mps 747 mmHg 76%
    09:00 +5°C° 0 mm 2 mps 747 mmHg 69%
    10:00 +6°C° 0 mm 2 mps 747 mmHg 64%
    11:00 +7°C° 0 mm 3 mps 747 mmHg 59%
    12:00 +8°C° 0 mm 3 mps 746 mmHg 54%
    13:00 +8°C° 0 mm 3 mps 746 mmHg 55%
    14:00 +8°C° 0 mm 2 mps 746 mmHg 56%
    15:00 +8°C° 0 mm 2 mps 746 mmHg 56%
    16:00 +7°C° 0 mm 2 mps 746 mmHg 62%
    17:00 +7°C° 0 mm 1 mps 746 mmHg 68%
    18:00 +6°C° 0 mm 1 mps 746 mmHg 73%
    19:00 +5°C° 0 mm 1 mps 746 mmHg 75%
    20:00 +5°C° 0 mm 1 mps 746 mmHg 76%
    21:00 +5°C° 0 mm 1 mps 746 mmHg 77%
    22:00 +4°C° 0 mm 1 mps 746 mmHg 80%
    23:00 +4°C° 0 mm 1 mps 746 mmHg 82%
    Show more